This is the latest recevied weather packets stored in our database for station/object WD4DAN-13. If no packets are shown the sender has not sent any weather packets the latest 1 day(s).
| Time | Temp. | Humidity | Pressure | Rain* | Wind** | Luminosity | Snow |
|---|---|---|---|---|---|---|---|
| 1778008062 | 28.89° C | 49% | - | 0 mm | 1.34 m/s, 342° | - | - |
| 1778007757 | 28.33° C | 51% | - | 0 mm | 2.24 m/s, 176° | - | - |
| 1778007454 | 28.33° C | 51% | - | 0 mm | 1.34 m/s, 281° | - | - |
| 1778007151 | 27.78° C | 51% | - | 0 mm | 0.89 m/s, 6° | - | - |
| 1778006847 | 28.33° C | 51% | - | 0 mm | 1.79 m/s, 262° | - | - |
| 1778006544 | 27.22° C | 52% | - | 0 mm | 1.34 m/s, 319° | - | - |
| 1778006241 | 27.78° C | 53% | - | 0 mm | 0.45 m/s, 0° | - | - |
| 1778005950 | 27.22° C | 51% | - | 0 mm | 0.89 m/s, 148° | - | - |
| 1778005634 | 27.78° C | 52% | - | 0 mm | 2.24 m/s, 309° | - | - |
| 1778005332 | 27.78° C | 54% | - | 0 mm | 2.24 m/s, 246° | - | - |
| 1778005028 | 27.78° C | 54% | - | 0 mm | 1.34 m/s, 237° | - | - |
| 1778004726 | 27.22° C | 53% | - | 0 mm | 0 m/s | - | - |
| 1778004422 | 27.78° C | 51% | - | 0 mm | 2.68 m/s, 251° | - | - |
| 1778004119 | 27.22° C | 52% | - | 0 mm | 2.24 m/s, 253° | - | - |
| 1778003815 | 27.22° C | 54% | - | 0 mm | 3.13 m/s, 266° | - | - |
| 1778003511 | 27.22° C | 57% | - | 0 mm | 0.89 m/s, 0° | - | - |
| 1778003208 | 27.22° C | 52% | - | 0 mm | 0.89 m/s, 131° | - | - |
| 1778002904 | 26.67° C | 52% | - | 0 mm | 0.89 m/s, 297° | - | - |
| 1778002601 | 27.78° C | 51% | - | 0 mm | 0 m/s | - | - |
| 1778002298 | 26.67° C | 50% | - | 0 mm | 1.34 m/s, 295° | - | - |
| 1778001995 | 26.11° C | 52% | - | 0 mm | 2.24 m/s, 263° | - | - |
| 1778001692 | 26.67° C | 57% | - | 0 mm | 1.79 m/s, 290° | - | - |
| 1778001386 | 26.11° C | 56% | - | 0 mm | 2.68 m/s, 357° | - | - |
| 1778001084 | 26.11° C | 55% | - | 0 mm | 1.79 m/s, 313° | - | - |
| 1778000775 | 27.22° C | 55% | - | 0 mm | 0.45 m/s, 286° | - | - |
* Rain latest hour (hover to see other rain measurements)
** Current wind speed in m/s (hover to see current wind gust speed)